Regional Weather Roundup
Issued by NWS

Home | Current Version | Previous Version | Graphics & Text | Print | Product List | Glossary On
Versions: 1 2 3 4 5 6 7 8 9 10 11 12 13 14 15 16 17 18 19 20 21 22 23 24 25 26 27 28 29 30 31 32 33 34 35 36 37 38 39 40 41 42 43 44 45 46 47 48 49 50
797
ASUS43 KBIS 040202
RWRND

NORTH DAKOTA REGIONAL WEATHER ROUNDUP
NATIONAL WEATHER SERVICE BISMARCK ND
800 PM CST SAT DEC 03 2016

NOTE: "FAIR" INDICATES FEW OR NO CLOUDS BELOW 12,000 FEET WITH NO
SIGNIFICANT WEATHER AND/OR OBSTRUCTIONS TO VISIBILITY.


NDZ001>003-009>011-017-040300-
NORTHWEST NORTH DAKOTA

CITY           SKY/WX    TMP DP  RH WIND       PRES   REMARKS
WILLISTON      FLURRIES  31  29  92 SW6       29.75S
MINOT          LGT SNOW  27  25  92 S8        29.75F FOG     WCI  19
MINOT AFB      CLOUDY    27  25  91 S10       29.74F WCI  17
$$

NDZ018>021-031>035-040>046-040300-
SOUTHWEST NORTH DAKOTA

CITY           SKY/WX    TMP DP  RH WIND       PRES   REMARKS
BISMARCK       LGT SNOW  25  24  96 SE5       29.83F FOG     WCI  19
DICKINSON      MOCLDY    28  22  78 W15       29.75S WCI  16
GARRISON         N/A     28  26  92 S9        29.76F WCI  19
HETTINGER ARPT PTCLDY    28  22  78 W9        29.82S WCI  19
$$

NDZ004>008-012>016-024-026-027-054-040300-
NORTHEAST NORTH DAKOTA

CITY           SKY/WX    TMP DP  RH WIND       PRES   REMARKS
GRAND FORKS    LGT SNOW  30  27  88 SE14      29.96F WCI  19
GRND FRKS AFB  LGT SNOW  32  28  86 S13       29.95F FOG
DEVILS LAKE    CLOUDY    31  29  92 SE16      29.86F WCI  20
$$

NDZ022-023-025-028>030-036>039-047>053-040300-
SOUTHEAST NORTH DAKOTA

CITY           SKY/WX    TMP DP  RH WIND       PRES   REMARKS
FARGO          CLOUDY    33  29  85 SE21G28   29.97F
JAMESTOWN      CLOUDY    33  32  96 S14       29.86F
$$





USA.gov is the U.S. government's official web portal to all federal, state and local government web resources and services.